Location: Kra?nica
(53.4833°N, 14.6167°E)
Time: 21:52:22
(UTC+00:00)

Cosmos 2278 - Pass Details

Date: 23 May 2024
Orbit: 837 x 853 km, 71.1° (Epoch: 20 June)

Event Time Altitude Azimuth Distance (km) Brightness Sun altitude
Rises 00:32:41 0° 326° (NNW) 3,432 7.4 -13.1°
Reaches altitude 10° 00:35:10 10° 324° (NW) 2,494 6.6 -13.0°
Maximum altitude 00:40:48 62° 245° (WSW) 957 3.8 -12.6°
Drops below altitude 10° 00:46:25 10° 166° (SSE) 2,479 5.7 -12.3°
Enters shadow 00:46:59 - 165° (SSE) 2,688 5.9 -12.2°
